• In Schweiz
  • Länderverzeichnis
  • Für 7 Tage
  • Wassertemperatur
  • Satellitenkarten
  • Wetterkarte
  • Widgets
  • user-avatar
    Anmelden

    Stündliche Wetter Arbela

    Heute, 21 Oktober, Sonntag

    Zeit Temperatur Niederschläge Wind Luftdruck Luftfeuchtigkeit
    00:00 +25°C° 0 mm 2 m/S 727 mmHg 41%
    01:00 +24°C° 0 mm 2 m/S 727 mmHg 42%
    02:00 +24°C° 0 mm 2 m/S 727 mmHg 43%
    03:00 +22°C° 0 mm 3 m/S 727 mmHg 44%
    04:00 +23°C° 0.1 mm 2 m/S 726 mmHg 45%
    05:00 +23°C° 0.1 mm 2 m/S 726 mmHg 46%
    06:00 +21°C° 0.1 mm 2 m/S 726 mmHg 47%
    07:00 +23°C° 0.8 mm 2 m/S 727 mmHg 48%
    08:00 +23°C° 0.8 mm 2 m/S 727 mmHg 49%
    09:00 +24°C° 0 mm 2 m/S 727 mmHg 45%
    10:00 +25°C° 0.2 mm 2 m/S 728 mmHg 43%
    11:00 +26°C° 0.2 mm 3 m/S 728 mmHg 41%
    12:00 +26°C° 0.2 mm 3 m/S 728 mmHg 39%
    13:00 +27°C° 0 mm 3 m/S 727 mmHg 39%
    14:00 +27°C° 0 mm 3 m/S 727 mmHg 38%
    15:00 +24°C° 0 mm 3 m/S 727 mmHg 54%
    16:00 +24°C° 0.1 mm 3 m/S 727 mmHg 53%
    17:00 +23°C° 0.1 mm 4 m/S 727 mmHg 52%
    18:00 +23°C° 0.1 mm 5 m/S 727 mmHg 51%
    19:00 +23°C° 0 mm 4 m/S 727 mmHg 50%
    20:00 +24°C° 0 mm 3 m/S 727 mmHg 50%
    21:00 +22°C° 0 mm 3 m/S 727 mmHg 49%
    22:00 +22°C° 0.1 mm 3 m/S 727 mmHg 49%
    23:00 +23°C° 0.1 mm 2 m/S 727 mmHg 49%

    Morgen, 22 Oktober, Montag

    Zeit Temperatur Niederschläge Wind Luftdruck Luftfeuchtigkeit
    00:00 +23°C° 0.1 mm 2 m/S 727 mmHg 49%
    01:00 +23°C° 0.6 mm 2 m/S 727 mmHg 50%
    02:00 +23°C° 0.6 mm 2 m/S 727 mmHg 51%
    03:00 +21°C° 0.6 mm 2 m/S 727 mmHg 52%
    04:00 +21°C° 0.6 mm 2 m/S 727 mmHg 53%
    05:00 +21°C° 0.6 mm 2 m/S 727 mmHg 54%
    06:00 +21°C° 0.6 mm 2 m/S 727 mmHg 56%
    07:00 +22°C° 0.3 mm 3 m/S 728 mmHg 53%
    08:00 +24°C° 0.3 mm 3 m/S 728 mmHg 50%
    09:00 +25°C° 0.3 mm 3 m/S 728 mmHg 47%
    10:00 +26°C° 0.1 mm 3 m/S 728 mmHg 45%
    11:00 +27°C° 0.1 mm 3 m/S 728 mmHg 43%
    12:00 +28°C° 0.1 mm 3 m/S 728 mmHg 40%
    13:00 +28°C° 0 mm 3 m/S 728 mmHg 40%
    14:00 +28°C° 0 mm 2 m/S 728 mmHg 40%
    15:00 +29°C° 0 mm 2 m/S 727 mmHg 39%
    16:00 +28°C° 0 mm 2 m/S 727 mmHg 42%
    17:00 +28°C° 0 mm 1 m/S 727 mmHg 45%
    18:00 +27°C° 0 mm 1 m/S 727 mmHg 47%
    19:00 +26°C° 0 mm 1 m/S 727 mmHg 48%
    20:00 +26°C° 0 mm 1 m/S 728 mmHg 49%
    21:00 +26°C° 0 mm 1 m/S 728 mmHg 50%
    22:00 +25°C° 0.1 mm 1 m/S 728 mmHg 50%
    23:00 +25°C° 0.1 mm 1 m/S 728 mmHg 51%

    übermorgen, 23 Oktober, Dienstag

    Zeit Temperatur Niederschläge Wind Luftdruck Luftfeuchtigkeit
    00:00 +24°C° 0.1 mm 2 m/S 728 mmHg 51%
    01:00 +24°C° 0 mm 2 m/S 728 mmHg 51%
    02:00 +24°C° 0 mm 2 m/S 728 mmHg 51%
    03:00 +23°C° 0 mm 2 m/S 728 mmHg 51%
    04:00 +23°C° 0 mm 2 m/S 728 mmHg 52%
    05:00 +23°C° 0 mm 2 m/S 728 mmHg 52%
    06:00 +21°C° 0 mm 2 m/S 728 mmHg 53%
    07:00 +23°C° 0 mm 2 m/S 728 mmHg 50%
    08:00 +24°C° 0 mm 2 m/S 728 mmHg 47%
    09:00 +25°C° 0 mm 2 m/S 729 mmHg 44%
    10:00 +26°C° 0 mm 2 m/S 728 mmHg 43%
    11:00 +27°C° 0 mm 2 m/S 728 mmHg 42%
    12:00 +28°C° 0 mm 1 m/S 728 mmHg 41%
    13:00 +28°C° 0 mm 1 m/S 728 mmHg 40%
    14:00 +29°C° 0 mm 2 m/S 727 mmHg 38%
    15:00 +29°C° 0 mm 2 m/S 727 mmHg 36%
    16:00 +29°C° 0 mm 2 m/S 727 mmHg 37%
    17:00 +28°C° 0 mm 1 m/S 727 mmHg 39%
    18:00 +27°C° 0 mm 1 m/S 727 mmHg 41%
    19:00 +27°C° 0 mm 1 m/S 727 mmHg 42%
    20:00 +26°C° 0 mm 1 m/S 727 mmHg 44%
    21:00 +26°C° 0 mm 1 m/S 728 mmHg 45%
    22:00 +26°C° 0 mm 1 m/S 727 mmHg 46%
    23:00 +25°C° 0 mm 1 m/S 727 mmHg 46%

    24 Oktober, Mittwoch

    Zeit Temperatur Niederschläge Wind Luftdruck Luftfeuchtigkeit
    00:00 +25°C° 0 mm 1 m/S 727 mmHg 46%
    01:00 +25°C° 0 mm 1 m/S 727 mmHg 48%
    02:00 +24°C° 0 mm 2 m/S 727 mmHg 49%
    03:00 +24°C° 0 mm 2 m/S 726 mmHg 50%
    04:00 +23°C° 0.1 mm 2 m/S 726 mmHg 51%
    05:00 +22°C° 0.1 mm 3 m/S 726 mmHg 51%
    06:00 +22°C° 0.1 mm 3 m/S 726 mmHg 52%
    07:00 +22°C° 0 mm 3 m/S 727 mmHg 49%
    08:00 +24°C° 0 mm 3 m/S 727 mmHg 46%
    09:00 +25°C° 0 mm 3 m/S 727 mmHg 42%
    10:00 +26°C° 0 mm 3 m/S 727 mmHg 40%
    11:00 +27°C° 0 mm 3 m/S 726 mmHg 37%
    12:00 +28°C° 0 mm 3 m/S 726 mmHg 34%
    13:00 +28°C° 0.1 mm 3 m/S 726 mmHg 34%
    14:00 +28°C° 0.1 mm 3 m/S 725 mmHg 35%
    15:00 +28°C° 0.1 mm 3 m/S 725 mmHg 35%
    16:00 +27°C° 0.2 mm 3 m/S 725 mmHg 38%
    17:00 +26°C° 0.2 mm 3 m/S 725 mmHg 41%
    18:00 +25°C° 0.2 mm 3 m/S 725 mmHg 44%
    19:00 +25°C° 0.4 mm 3 m/S 725 mmHg 47%
    20:00 +24°C° 0.4 mm 3 m/S 725 mmHg 50%
    21:00 +22°C° 0.4 mm 3 m/S 725 mmHg 54%
    22:00 +22°C° 0.3 mm 3 m/S 724 mmHg 55%
    23:00 +21°C° 0.3 mm 3 m/S 724 mmHg 57%

    25 Oktober, Donnerstag

    Zeit Temperatur Niederschläge Wind Luftdruck Luftfeuchtigkeit
    00:00 +21°C° 0.3 mm 3 m/S 724 mmHg 58%
    01:00 +21°C° 0.3 mm 3 m/S 723 mmHg 59%
    02:00 +21°C° 0.3 mm 4 m/S 723 mmHg 59%
    03:00 +21°C° 0.3 mm 4 m/S 723 mmHg 59%
    04:00 +21°C° 0.2 mm 4 m/S 723 mmHg 59%
    05:00 +21°C° 0.2 mm 4 m/S 722 mmHg 58%
    06:00 +21°C° 0.2 mm 4 m/S 722 mmHg 58%
    07:00 +22°C° 0.3 mm 4 m/S 722 mmHg 53%
    08:00 +23°C° 0.3 mm 4 m/S 722 mmHg 48%
    09:00 +25°C° 0.3 mm 5 m/S 723 mmHg 43%
    10:00 +26°C° 0.3 mm 4 m/S 722 mmHg 42%
    11:00 +27°C° 0.3 mm 4 m/S 722 mmHg 40%
    12:00 +27°C° 0.3 mm 4 m/S 722 mmHg 39%
    13:00 +27°C° 0.2 mm 4 m/S 722 mmHg 41%
    14:00 +26°C° 0.2 mm 3 m/S 721 mmHg 43%
    15:00 +26°C° 0.2 mm 3 m/S 721 mmHg 45%
    16:00 +25°C° 0.2 mm 3 m/S 721 mmHg 48%
    17:00 +25°C° 0.2 mm 3 m/S 721 mmHg 52%
    18:00 +24°C° 0.2 mm 3 m/S 721 mmHg 56%
    19:00 +22°C° 0.3 mm 3 m/S 721 mmHg 58%
    20:00 +22°C° 0.3 mm 3 m/S 721 mmHg 60%
    21:00 +22°C° 0.3 mm 3 m/S 721 mmHg 62%
    22:00 +22°C° 0.3 mm 3 m/S 721 mmHg 62%
    23:00 +22°C° 0.3 mm 3 m/S 721 mmHg 62%

    26 Oktober, Freitag

    Zeit Temperatur Niederschläge Wind Luftdruck Luftfeuchtigkeit
    00:00 +22°C° 0.3 mm 3 m/S 721 mmHg 62%
    01:00 +22°C° 0.4 mm 3 m/S 721 mmHg 61%
    02:00 +22°C° 0.4 mm 3 m/S 721 mmHg 60%
    03:00 +22°C° 0.4 mm 3 m/S 721 mmHg 59%
    04:00 +22°C° 0.4 mm 3 m/S 721 mmHg 59%
    05:00 +22°C° 0.4 mm 4 m/S 722 mmHg 59%
    06:00 +22°C° 0.4 mm 4 m/S 722 mmHg 59%
    07:00 +22°C° 0.1 mm 4 m/S 723 mmHg 57%
    08:00 +23°C° 0.1 mm 5 m/S 723 mmHg 54%
    09:00 +23°C° 0.1 mm 6 m/S 724 mmHg 52%
    10:00 +24°C° 0.2 mm 6 m/S 724 mmHg 50%
    11:00 +24°C° 0.2 mm 6 m/S 724 mmHg 48%
    12:00 +26°C° 0.2 mm 6 m/S 724 mmHg 46%
    13:00 +26°C° 0.5 mm 7 m/S 724 mmHg 45%
    14:00 +26°C° 0.5 mm 7 m/S 724 mmHg 45%
    15:00 +26°C° 0.5 mm 7 m/S 723 mmHg 44%
    16:00 +26°C° 0.4 mm 7 m/S 724 mmHg 46%
    17:00 +24°C° 0.4 mm 7 m/S 724 mmHg 47%
    18:00 +24°C° 0.4 mm 7 m/S 724 mmHg 49%
    19:00 +23°C° 0.5 mm 6 m/S 724 mmHg 51%
    20:00 +22°C° 0.5 mm 6 m/S 725 mmHg 54%
    21:00 +21°C° 0.5 mm 5 m/S 725 mmHg 56%
    22:00 +20°C° 0.1 mm 5 m/S 726 mmHg 53%
    23:00 +19°C° 0.1 mm 4 m/S 726 mmHg 50%
    Mehr zeigen